STARLINK-1612 (46164 NORAD) Tracking and Keplerian Element Data

This shows tracking and keplerian element data for the satellite.

Feedback or suggestion? Click here.




ElementValue
Catalog46164
NameSTARLINK-1612
Epoch Orbit2444
Epoch Day18.10756747
Epoch Year2021
RAAN60.8871
Inclination53.0544
Eccentricity7.49E-05
Argument of Perigee346.2311
Mean Anonmoly13.8658
Mean Motion15.06394425
Decay Rate1.481E-05
L11 46164U 20057AZ 21018.10756747 .00001481 00000-0 11831-3 0 9995
L22 46164 53.0544 60.8871 0000749 346.2311 13.8658 15.06394425 24448

Live tracking and technical data element details for STARLINK-1612 (NORAD 46164). STARLINK-1612 can be tracked NOW for your location showing map with azimuth and elevation plus other details from your city location.

Track the satellite on the map from your city or location and see movement details for azimuth, elevation, latitude, longitude, range, height, and movement on the map or in text.







IsCatalogInMostPopularTable: catalog: 46164, numindb: 33
Update: records affected: 1



GetName: 46164 STARLINK-1612

Hit Count: updated at: Tue, 19 Jan 2021 03:25:05 GMT